• în România
  • Lista ţărilor
  • Pe 7 zile
  • Temperatura apei
  • Hartă satelitară
  • Meteo pe hartă
  • Widget-uri
  • user-avatar
    Intrare

    Meteo pe oră la Oran

    Astăzi, 22 Septembrie, Sâmbătă

    Timp Temperatura Precipitaţii Vânt Presiune Umiditate
    00:00 +27°C° 0 mm 2 m/s 755 mmHg 65%
    01:00 +26°C° 0 mm 2 m/s 755 mmHg 66%
    02:00 +26°C° 0 mm 2 m/s 754 mmHg 68%
    03:00 +26°C° 0 mm 2 m/s 754 mmHg 69%
    04:00 +25°C° 0 mm 2 m/s 755 mmHg 70%
    05:00 +25°C° 0 mm 2 m/s 755 mmHg 72%
    06:00 +25°C° 0 mm 2 m/s 755 mmHg 73%
    07:00 +26°C° 0 mm 2 m/s 755 mmHg 65%
    08:00 +28°C° 0 mm 2 m/s 756 mmHg 58%
    09:00 +29°C° 0 mm 2 m/s 756 mmHg 51%
    10:00 +30°C° 0 mm 3 m/s 756 mmHg 44%
    11:00 +33°C° 0 mm 3 m/s 756 mmHg 37%
    12:00 +34°C° 0 mm 4 m/s 756 mmHg 30%
    13:00 +34°C° 0 mm 4 m/s 756 mmHg 29%
    14:00 +35°C° 0 mm 5 m/s 755 mmHg 29%
    15:00 +35°C° 0 mm 5 m/s 755 mmHg 28%
    16:00 +34°C° 0 mm 5 m/s 755 mmHg 32%
    17:00 +33°C° 0 mm 5 m/s 755 mmHg 36%
    18:00 +32°C° 0 mm 5 m/s 755 mmHg 39%
    19:00 +30°C° 0 mm 4 m/s 755 mmHg 42%
    20:00 +30°C° 0 mm 4 m/s 756 mmHg 45%
    21:00 +29°C° 0 mm 3 m/s 756 mmHg 48%
    22:00 +29°C° 0 mm 3 m/s 756 mmHg 50%
    23:00 +28°C° 0 mm 3 m/s 756 mmHg 51%

    Mâine, 23 Septembrie, Duminică

    Timp Temperatura Precipitaţii Vânt Presiune Umiditate
    00:00 +28°C° 0 mm 2 m/s 756 mmHg 52%
    01:00 +28°C° 0 mm 2 m/s 755 mmHg 51%
    02:00 +27°C° 0 mm 2 m/s 755 mmHg 51%
    03:00 +27°C° 0 mm 2 m/s 755 mmHg 51%
    04:00 +27°C° 0 mm 2 m/s 755 mmHg 50%
    05:00 +26°C° 0 mm 2 m/s 755 mmHg 49%
    06:00 +26°C° 0 mm 2 m/s 755 mmHg 48%
    07:00 +28°C° 0 mm 2 m/s 755 mmHg 42%
    08:00 +30°C° 0 mm 2 m/s 756 mmHg 36%
    09:00 +32°C° 0 mm 2 m/s 756 mmHg 30%
    10:00 +34°C° 0 mm 2 m/s 756 mmHg 27%
    11:00 +35°C° 0 mm 3 m/s 756 mmHg 24%
    12:00 +36°C° 0 mm 3 m/s 756 mmHg 21%
    13:00 +37°C° 0 mm 3 m/s 755 mmHg 20%
    14:00 +37°C° 0 mm 4 m/s 755 mmHg 20%
    15:00 +37°C° 0 mm 5 m/s 754 mmHg 19%
    16:00 +36°C° 0 mm 5 m/s 754 mmHg 22%
    17:00 +35°C° 0 mm 5 m/s 754 mmHg 25%
    18:00 +34°C° 0 mm 5 m/s 754 mmHg 28%
    19:00 +33°C° 0 mm 5 m/s 755 mmHg 30%
    20:00 +33°C° 0 mm 4 m/s 755 mmHg 32%
    21:00 +32°C° 0 mm 4 m/s 755 mmHg 34%
    22:00 +31°C° 0 mm 3 m/s 755 mmHg 35%
    23:00 +30°C° 0 mm 3 m/s 755 mmHg 36%

    Poimâine, 24 Septembrie, Luni

    Timp Temperatura Precipitaţii Vânt Presiune Umiditate
    00:00 +30°C° 0 mm 2 m/s 754 mmHg 37%
    01:00 +29°C° 0 mm 2 m/s 754 mmHg 37%
    02:00 +29°C° 0 mm 2 m/s 754 mmHg 37%
    03:00 +29°C° 0 mm 2 m/s 754 mmHg 37%
    04:00 +28°C° 0 mm 2 m/s 754 mmHg 38%
    05:00 +28°C° 0 mm 2 m/s 754 mmHg 38%
    06:00 +28°C° 0 mm 2 m/s 754 mmHg 39%
    07:00 +29°C° 0 mm 3 m/s 754 mmHg 35%
    08:00 +31°C° 0 mm 3 m/s 755 mmHg 32%
    09:00 +34°C° 0 mm 3 m/s 755 mmHg 28%
    10:00 +35°C° 0 mm 3 m/s 755 mmHg 27%
    11:00 +36°C° 0 mm 4 m/s 755 mmHg 25%
    12:00 +37°C° 0 mm 4 m/s 755 mmHg 23%
    13:00 +37°C° 0 mm 5 m/s 754 mmHg 24%
    14:00 +37°C° 0 mm 5 m/s 754 mmHg 25%
    15:00 +38°C° 0 mm 6 m/s 753 mmHg 26%
    16:00 +35°C° 0 mm 6 m/s 753 mmHg 30%
    17:00 +34°C° 0 mm 6 m/s 753 mmHg 35%
    18:00 +33°C° 0 mm 5 m/s 753 mmHg 39%
    19:00 +32°C° 0 mm 5 m/s 753 mmHg 42%
    20:00 +30°C° 0 mm 4 m/s 754 mmHg 46%
    21:00 +30°C° 0 mm 4 m/s 754 mmHg 49%
    22:00 +29°C° 0 mm 4 m/s 754 mmHg 52%
    23:00 +29°C° 0 mm 3 m/s 754 mmHg 55%

    25 Septembrie, Marţi

    Timp Temperatura Precipitaţii Vânt Presiune Umiditate
    00:00 +28°C° 0 mm 3 m/s 754 mmHg 58%
    01:00 +28°C° 0 mm 3 m/s 753 mmHg 60%
    02:00 +27°C° 0 mm 3 m/s 753 mmHg 63%
    03:00 +27°C° 0 mm 3 m/s 753 mmHg 66%
    04:00 +26°C° 0 mm 3 m/s 753 mmHg 69%
    05:00 +26°C° 0 mm 3 m/s 753 mmHg 71%
    06:00 +26°C° 0 mm 4 m/s 753 mmHg 74%
    07:00 +27°C° 0 mm 3 m/s 754 mmHg 68%
    08:00 +28°C° 0 mm 3 m/s 754 mmHg 61%
    09:00 +29°C° 0 mm 3 m/s 754 mmHg 55%
    10:00 +30°C° 0 mm 4 m/s 754 mmHg 50%
    11:00 +33°C° 0 mm 5 m/s 754 mmHg 46%
    12:00 +34°C° 0 mm 5 m/s 754 mmHg 41%
    13:00 +34°C° 0 mm 6 m/s 754 mmHg 42%
    14:00 +34°C° 0 mm 7 m/s 753 mmHg 43%
    15:00 +34°C° 0 mm 7 m/s 753 mmHg 44%
    16:00 +33°C° 0 mm 7 m/s 753 mmHg 48%
    17:00 +32°C° 0 mm 7 m/s 753 mmHg 52%
    18:00 +30°C° 0 mm 7 m/s 754 mmHg 56%
    19:00 +29°C° 0 mm 7 m/s 754 mmHg 59%
    20:00 +29°C° 0 mm 7 m/s 755 mmHg 62%
    21:00 +28°C° 0 mm 7 m/s 755 mmHg 65%
    22:00 +28°C° 0 mm 7 m/s 755 mmHg 66%
    23:00 +27°C° 0 mm 7 m/s 755 mmHg 67%

    26 Septembrie, Miercuri

    Timp Temperatura Precipitaţii Vânt Presiune Umiditate
    00:00 +27°C° 0 mm 7 m/s 755 mmHg 69%
    01:00 +27°C° 0 mm 6 m/s 755 mmHg 70%
    02:00 +26°C° 0 mm 6 m/s 755 mmHg 70%
    03:00 +26°C° 0 mm 6 m/s 755 mmHg 71%
    04:00 +26°C° 0 mm 6 m/s 755 mmHg 72%
    05:00 +24°C° 0 mm 6 m/s 755 mmHg 73%
    06:00 +24°C° 0 mm 6 m/s 755 mmHg 74%
    07:00 +26°C° 0 mm 6 m/s 755 mmHg 69%
    08:00 +27°C° 0 mm 6 m/s 756 mmHg 64%
    09:00 +28°C° 0 mm 6 m/s 756 mmHg 59%
    10:00 +29°C° 0 mm 6 m/s 756 mmHg 54%
    11:00 +30°C° 0 mm 6 m/s 756 mmHg 50%
    12:00 +32°C° 0 mm 6 m/s 756 mmHg 45%
    13:00 +32°C° 0 mm 6 m/s 755 mmHg 46%
    14:00 +32°C° 0 mm 6 m/s 755 mmHg 47%
    15:00 +32°C° 0 mm 7 m/s 755 mmHg 47%
    16:00 +30°C° 0 mm 7 m/s 755 mmHg 53%
    17:00 +29°C° 0 mm 7 m/s 755 mmHg 58%
    18:00 +28°C° 0 mm 6 m/s 755 mmHg 63%
    19:00 +27°C° 0 mm 6 m/s 756 mmHg 66%
    20:00 +27°C° 0 mm 6 m/s 756 mmHg 69%
    21:00 +26°C° 0 mm 5 m/s 756 mmHg 72%
    22:00 +26°C° 0 mm 5 m/s 756 mmHg 74%
    23:00 +26°C° 0 mm 4 m/s 756 mmHg 76%

    27 Septembrie, Joi

    Timp Temperatura Precipitaţii Vânt Presiune Umiditate
    00:00 +25°C° 0 mm 4 m/s 756 mmHg 79%
    01:00 +25°C° 0 mm 4 m/s 756 mmHg 79%
    02:00 +25°C° 0 mm 4 m/s 756 mmHg 79%
    03:00 +25°C° 0 mm 4 m/s 755 mmHg 80%
    04:00 +25°C° 0 mm 3 m/s 755 mmHg 81%
    05:00 +24°C° 0 mm 3 m/s 755 mmHg 82%
    06:00 +24°C° 0 mm 2 m/s 755 mmHg 84%
    07:00 +25°C° 0 mm 2 m/s 756 mmHg 78%
    08:00 +26°C° 0 mm 2 m/s 756 mmHg 72%
    09:00 +27°C° 0 mm 2 m/s 756 mmHg 67%
    10:00 +28°C° 0 mm 2 m/s 756 mmHg 61%
    11:00 +29°C° 0 mm 2 m/s 756 mmHg 55%
    12:00 +30°C° 0 mm 3 m/s 756 mmHg 49%
    13:00 +31°C° 0 mm 3 m/s 755 mmHg 48%
    14:00 +32°C° 0 mm 4 m/s 755 mmHg 48%
    15:00 +32°C° 0 mm 5 m/s 754 mmHg 47%
    16:00 +30°C° 0 mm 5 m/s 754 mmHg 51%
    17:00 +30°C° 0 mm 5 m/s 754 mmHg 56%
    18:00 +29°C° 0 mm 5 m/s 754 mmHg 60%
    19:00 +28°C° 0 mm 4 m/s 755 mmHg 62%
    20:00 +28°C° 0 mm 4 m/s 755 mmHg 65%
    21:00 +28°C° 0 mm 4 m/s 755 mmHg 67%
    22:00 +27°C° 0 mm 4 m/s 755 mmHg 68%
    23:00 +27°C° 0 mm 4 m/s 754 mmHg 69%
    Arată mai mult